Weather in Araracuara

Colombia     0°39′22″N   72°13′50″W
temp.,
°C
wind,
m/s
gust,
m/s
humid.,
%
clouds,
%
prec.,
mm/h
press.,
hPa
HPBL,
m
9 may, sun
sun901:00+21sw149999 3.3 1014154
04:00+21ssw139948 0.1 101395
07:00+21s139741 0.1 1016195
10:00+26s247886 0.5 1017997
13:00+24sse1395100 2.5 1014242
16:00+26sw137990 0.3 1011678
19:00+22ssw0198100 4.4 101314
22:00+22sw12100100 4.2 101585
10 may, mon
mon1001:00+22wsw139994 5.2 1013109
04:00+21wsw129998 0.8 101398
07:00+21w0099100 1.7 101436
10:00+22w01100100 13.5 101670
13:00+22sw1299100 16.7 1013169
16:00+23wsw0196100 0.9 1012266
19:00+22wsw009950 1.1 101420
22:00+21wnw0099100 0.0 101522
11 may, tue
tue1101:00+21ese00100100 1.3 101337
04:00+21nw01100100 11.8 101348
07:00+21wsw13100100 19.7 1015158
10:00+23wsw249599 2.3 1016367
13:00+23ssw1494100 2.8 1013286
16:00+22wsw1394100 0.1 1011203
19:00+22s0099100 0.2 101319
22:00+21wsw0099100 0.1 101522
12 may, wed
wed1201:00+21wsw00100100 0.2 101421
04:00+21w0010086 0.0 101318
07:00+21e0098100 0.0 101561
10:00+23e0194100 0.1 1016202
13:00+22nne009899 0.7 1013125
16:00+23sse019527 0.0 1011111
19:00+22s009796 0.0 101214
22:00+22ssw0198100 0.0 101415
13 may, thu
thu1301:00+21ne0099100 0.7 101320
04:00+21e1110084 1.3 101341
07:00+22ne019896 1.4 1015156
10:00+25ene1289100 0.7 1016427
13:00+24nne129161 1.6 1013368
16:00+27nne227124 0.0 1010841
19:00+22nne1197100 0.0 101135
22:00+22n1198100 0.0 101426